Temp
-11 -11 -12 -12 -12 -12 -13 -13 -13 -13 -13 -13 -14 -14 -14 -14 -14 -14 -14 -14 -15 -16 -15 -15 -16 -17 -18 -18 -18 -17 -17 -18 -17 -16 -16 -16 -15 -14 -14 -14 -14 -13 -13 -13
-11 -11 -12 -12 -12 -13 -13 -13 -13 -14 -14 -14 -14 -14 -14 -14 -14 -14 -15 -14 -15 -15 -15 -16 -16 -17 -17 -17 -17 -18 -18 -17 -17 -18 -17 -17 -15 -15 -14 -14 -14 -14 -14 -14
-11 -11 -12 -12 -12 -13 -13 -13 -13 -13 -14 -14 -14 -14 -14 -15 -15 -15 -15 -15 -14 -15 -16 -16 -15 -17 -17 -17 -17 -17 -17 -17 -18 -18 -18 -17 -16 -15 -14 -13 -15 -14 -14 -14
-11 -11 -12 -12 -12 -13 -13 -13 -14 -14 -14 -14 -15 -15 -14 -15 -15 -15 -15 -15 -15 -15 -16 -16 -16 -16 -16 -17 -17 -17 -17 -18 -18 -18 -18 -18 -16 -16 -14 -14 -14 -14 -14 -14
-11 -11 -11 -12 -13 -13 -14 -14 -14 -14 -14 -14 -15 -15 -16 -15 -16 -16 -16 -16 -16 -17 -17 -17 -17 -16 -17 -17 -18 -17 -17 -18 -18 -18 -18 -18 -18 -16 -15 -14 -15 -15 -14 -14
-11 -11 -12 -12 -13 -13 -14 -14 -15 -15 -15 -15 -16 -16 -16 -16 -17 -17 -16 -16 -17 -17 -17 -17 -17 -17 -17 -18 -17 -17 -18 -18 -19 -19 -19 -18 -18 -17 -16 -15 -15 -15 -14 -14
-12 -12 -12 -13 -14 -14 -14 -14 -14 -15 -15 -16 -16 -16 -17 -17 -17 -17 -17 -17 -17 -17 -17 -17 -17 -17 -17 -18 -17 -17 -18 -17 -18 -18 -18 -16 -16 -16 -16 -15 -15 -15 -15 -15
-12 -12 -12 -12 -13 -14 -15 -15 -15 -16 -16 -16 -17 -16 -17 -17 -18 -18 -18 -17 -17 -17 -17 -17 -17 -17 -17 -17 -17 -17 -17 -17 -17 -18 -17 -16 -16 -16 -16 -15 -15 -15 -15 -15
-11 -12 -12 -13 -13 -14 -14 -15 -15 -15 -15 -15 -16 -17 -17 -17 -18 -18 -18 -18 -18 -17 -17 -17 -17 -17 -17 -17 -17 -17 -17 -17 -16 -16 -16 -16 -16 -16 -16 -15 -15 -15 -15 -15
-12 -13 -13 -13 -13 -14 -15 -15 -16 -16 -16 -16 -16 -17 -17 -17 -18 -18 -18 -18 -18 -18 -17 -17 -17 -17 -17 -17 -17 -17 -17 -17 -17 -17 -17 -16 -16 -16 -16 -16 -16 -16 -16 -16
-12 -12 -13 -13 -13 -15 -15 -15 -15 -16 -16 -16 -16 -16 -17 -17 -18 -18 -18 -18 -18 -18 -18 -18 -18 -17 -18 -18 -17 -17 -17 -17 -17 -16 -16 -16 -16 -16 -17 -16 -16 -17 -16 -16
-12 -12 -13 -14 -14 -15 -15 -15 -15 -15 -16 -17 -16 -16 -17 -17 -17 -18 -18 -18 -18 -18 -18 -18 -18 -18 -18 -18 -18 -18 -18 -18 -17 -17 -17 -17 -17 -17 -16 -16 -16 -16 -16 -16
-13 -13 -12 -13 -13 -14 -16 -16 -16 -16 -16 -16 -16 -16 -17 -16 -17 -17 -18 -18 -19 -18 -18 -18 -18 -18 -18 -18 -18 -17 -18 -18 -18 -18 -18 -18 -18 -18 -17 -17 -17 -17 -17 -17
-13 -14 -14 -15 -15 -15 -16 -16 -16 -17 -16 -15 -17 -16 -17 -17 -17 -17 -17 -18 -18 -19 -19 -18 -18 -18 -18 -18 -18 -18 -18 -18 -18 -18 -18 -17 -17 -17 -17 -17 -17 -17 -17 -17
-14 -14 -14 -15 -15 -15 -16 -16 -17 -17 -17 -16 -17 -17 -16 -17 -17 -17 -17 -17 -18 -18 -19 -19 -18 -18 -18 -18 -18 -18 -18 -18 -18 -18 -18 -18 -18 -18 -18 -17 -18 -18 -18 -18
-15 -15 -14 -15 -16 -16 -16 -16 -17 -17 -17 -17 -17 -17 -18 -18 -17 -17 -17 -17 -17 -18 -18 -18 -18 -18 -18 -18 -18 -18 -18 -18 -18 -18 -18 -18 -18 -18 -18 -18 -18 -18 -18 -18
-15 -15 -15 -14 -15 -15 -16 -16 -16 -17 -17 -17 -17 -18 -18 -18 -18 -18 -18 -18 -18 -18 -18 -18 -18 -18 -18 -19 -18 -18 -18 -18 -18 -18 -18 -18 -18 -18 -18 -18 -18 -18 -19 -19
-16 -16 -16 -16 -16 -15 -16 -17 -17 -17 -17 -17 -17 -17 -17 -17 -18 -18 -18 -18 -18 -18 -18 -19 -19 -19 -19 -19 -19 -19 -19 -19 -18 -18 -18 -18 -17 -17 -17 -17 -17 -17 -18 -18
-17 -17 -18 -17 -16 -16 -16 -17 -17 -17 -17 -17 -17 -17 -17 -17 -18 -19 -19 -19 -19 -19 -19 -19 -19 -19 -19 -19 -19 -19 -19 -18 -18 -18 -18 -18 -18 -18 -18 -18 -18 -18 -18 -18
-17 -17 -17 -18 -18 -17 -18 -18 -18 -18 -17 -17 -17 -18 -18 -18 -18 -18 -19 -19 -20 -20 -20 -20 -20 -20 -20 -20 -20 -20 -20 -20 -20 -20 -19 -19 -19 -19 -19 -19 -19 -19 -19 -19
-17 -17 -17 -18 -18 -18 -18 -18 -18 -19 -18 -18 -18 -18 -18 -18 -18 -19 -19 -19 -19 -20 -20 -20 -20 -20 -20 -20 -20 -20 -20 -20 -20 -20 -20 -20 -20 -19 -19 -20 -20 -20 -20 -20
-18 -18 -18 -18 -18 -18 -19 -18 -18 -19 -19 -19 -18 -18 -18 -18 -19 -19 -19 -20 -20 -20 -20 -20 -20 -20 -20 -20 -20 -20 -20 -20 -20 -21 -21 -20 -20 -20 -20 -20 -21 -21 -21 -22
-18 -18 -19 -19 -19 -19 -19 -19 -19 -19 -19 -19 -18 -19 -19 -19 -19 -19 -20 -20 -20 -21 -21 -21 -21 -21 -21 -20 -20 -21 -21 -21 -21 -21 -21 -21 -22 -22 -22 -22 -23 -23 -24 -24
-18 -19 -20 -20 -19 -20 -20 -19 -19 -19 -20 -19 -19 -19 -19 -19 -20 -20 -20 -21 -21 -21 -21 -21 -21 -21 -21 -21 -21 -21 -22 -22 -22 -22 -23 -23 -24 -24 -25 -25 -26 -27 -28 -29
-19 -20 -20 -20 -20 -21 -21 -20 -20 -20 -20 -20 -20 -20 -20 -20 -20 -21 -21 -21 -21 -21 -21 -21 -21 -22 -22 -22 -22 -22 -22 -23 -23 -24 -25 -25 -26 -27 -29 -30 -31 -32 -33 -33
-19 -20 -21 -20 -21 -21 -21 -21 -20 -20 -20 -20 -20 -20 -20 -21 -21 -21 -22 -22 -22 -22 -22 -22 -22 -23 -23 -23 -24 -24 -24 -25 -26 -26 -27 -29 -30 -31 -32 -33 -33 -33 -33 -33
Height
5785 5782 5778 5775 5771 5767 5762 5758 5756 5752 5749 5746 5741 5738 5735 5731 5728 5723 5717 5712 5708 5702 5695 5688 5683 5677 5673 5670 5668 5669 5671 5673 5675 5680 5684 5694 5704 5713 5724 5729 5736 5742 5744 5748
5786 5781 5777 5773 5769 5765 5761 5757 5752 5748 5744 5742 5738 5734 5729 5726 5724 5720 5714 5708 5702 5697 5691 5686 5681 5677 5671 5668 5666 5664 5662 5662 5664 5670 5675 5684 5695 5706 5717 5725 5729 5732 5731 5739
5784 5780 5775 5770 5766 5762 5758 5754 5750 5746 5741 5737 5734 5731 5727 5724 5720 5716 5711 5705 5699 5694 5689 5684 5679 5674 5670 5667 5663 5662 5658 5654 5655 5659 5665 5675 5687 5699 5708 5712 5709 5723 5720 5724
5782 5776 5771 5767 5763 5759 5754 5750 5747 5742 5739 5734 5729 5727 5723 5719 5716 5713 5708 5702 5696 5690 5686 5681 5677 5673 5669 5664 5658 5656 5654 5653 5654 5657 5662 5671 5681 5692 5700 5707 5706 5711 5713 5717
5779 5773 5767 5762 5759 5755 5751 5745 5741 5738 5734 5732 5725 5722 5719 5716 5713 5710 5705 5700 5695 5691 5685 5680 5676 5671 5667 5664 5661 5659 5656 5653 5653 5656 5658 5668 5676 5686 5692 5696 5706 5706 5704 5709
5776 5770 5765 5759 5754 5750 5745 5741 5735 5732 5729 5728 5722 5716 5716 5711 5709 5706 5702 5698 5693 5690 5686 5682 5676 5672 5667 5662 5661 5660 5658 5657 5652 5660 5659 5667 5674 5683 5688 5691 5696 5699 5701 5702
5773 5767 5762 5756 5751 5746 5741 5737 5731 5726 5722 5720 5715 5710 5709 5706 5703 5701 5699 5696 5692 5688 5685 5682 5678 5675 5670 5666 5663 5663 5662 5658 5661 5662 5664 5669 5675 5680 5685 5689 5693 5692 5692 5692
5771 5764 5758 5752 5746 5742 5738 5733 5727 5721 5717 5714 5710 5705 5703 5699 5697 5695 5693 5691 5689 5686 5683 5679 5677 5675 5671 5667 5665 5663 5664 5663 5663 5662 5663 5664 5667 5673 5680 5680 5683 5683 5683 5680
5768 5761 5754 5750 5744 5740 5735 5729 5724 5719 5714 5707 5705 5700 5696 5693 5691 5689 5687 5685 5684 5682 5679 5677 5673 5672 5671 5669 5666 5665 5663 5663 5662 5660 5660 5663 5666 5670 5674 5677 5676 5677 5676 5676
5764 5759 5752 5747 5742 5737 5732 5726 5720 5715 5709 5703 5699 5697 5692 5688 5685 5683 5681 5679 5678 5677 5676 5674 5671 5668 5668 5667 5666 5664 5663 5660 5660 5658 5659 5661 5663 5665 5666 5667 5665 5668 5670 5671
5760 5755 5749 5743 5739 5734 5729 5722 5716 5710 5706 5700 5693 5694 5687 5684 5681 5678 5675 5673 5671 5670 5669 5669 5667 5666 5664 5662 5662 5662 5661 5660 5660 5659 5658 5659 5658 5658 5657 5658 5659 5658 5661 5661
5755 5751 5745 5740 5734 5730 5726 5718 5711 5706 5702 5698 5690 5691 5682 5679 5676 5673 5669 5667 5665 5664 5662 5661 5661 5660 5659 5658 5657 5657 5656 5656 5656 5656 5656 5656 5654 5652 5652 5652 5651 5651 5651 5648
5751 5745 5740 5735 5730 5723 5721 5715 5708 5702 5697 5694 5686 5684 5677 5672 5669 5665 5662 5660 5658 5657 5656 5655 5654 5653 5652 5651 5650 5650 5649 5648 5647 5645 5645 5645 5645 5645 5644 5643 5641 5639 5638 5636
5745 5742 5736 5731 5726 5718 5716 5711 5703 5697 5693 5686 5685 5680 5673 5669 5664 5660 5656 5653 5651 5649 5648 5648 5646 5645 5643 5642 5642 5641 5641 5640 5640 5639 5638 5635 5632 5630 5629 5629 5628 5627 5626 5623
5740 5736 5730 5727 5720 5713 5712 5707 5700 5693 5689 5681 5679 5673 5668 5664 5660 5655 5650 5647 5644 5641 5639 5638 5637 5637 5635 5634 5633 5633 5632 5631 5630 5629 5627 5625 5623 5622 5620 5617 5613 5611 5610 5608
5734 5729 5724 5721 5714 5708 5707 5702 5695 5687 5682 5676 5670 5668 5661 5657 5653 5649 5646 5642 5638 5635 5633 5631 5629 5628 5626 5625 5623 5622 5620 5618 5617 5615 5613 5610 5607 5604 5601 5599 5597 5594 5591 5588
5725 5719 5715 5712 5707 5700 5700 5695 5688 5682 5675 5669 5663 5658 5654 5650 5645 5641 5637 5633 5631 5630 5627 5624 5621 5618 5616 5614 5612 5609 5607 5604 5601 5598 5596 5594 5591 5588 5585 5582 5578 5575 5571 5567
5717 5711 5706 5703 5699 5692 5690 5684 5678 5674 5668 5661 5655 5649 5645 5641 5637 5631 5627 5625 5621 5618 5615 5612 5610 5607 5604 5601 5598 5595 5592 5589 5585 5582 5578 5574 5570 5567 5563 5559 5555 5552 5547 5543
5708 5702 5696 5692 5688 5684 5684 5677 5670 5665 5662 5651 5645 5640 5635 5630 5626 5622 5617 5614 5610 5607 5604 5600 5597 5594 5590 5587 5583 5579 5575 5571 5567 5563 5559 5556 5552 5547 5542 5537 5532 5527 5523 5518
5699 5692 5687 5682 5677 5670 5670 5665 5659 5652 5649 5641 5635 5630 5625 5621 5617 5612 5607 5603 5599 5595 5591 5586 5582 5578 5575 5571 5567 5563 5559 5554 5549 5543 5538 5534 5529 5524 5519 5514 5509 5504 5499 5493
5691 5683 5677 5672 5663 5663 5658 5652 5646 5641 5637 5630 5625 5621 5616 5611 5606 5600 5595 5590 5585 5581 5577 5572 5568 5563 5559 5555 5550 5546 5541 5536 5530 5524 5518 5513 5507 5503 5497 5491 5485 5479 5473 5468
5680 5671 5667 5660 5651 5648 5646 5640 5635 5628 5622 5618 5614 5609 5603 5598 5593 5588 5582 5577 5572 5567 5563 5558 5553 5548 5543 5539 5534 5528 5523 5517 5511 5503 5496 5490 5484 5477 5471 5464 5458 5451 5445 5440
5667 5660 5654 5652 5643 5638 5632 5627 5621 5615 5610 5605 5600 5595 5590 5585 5579 5574 5569 5564 5559 5554 5549 5544 5539 5533 5527 5522 5516 5509 5502 5496 5488 5480 5473 5466 5458 5450 5443 5437 5430 5424 5416 5410
5653 5646 5641 5635 5637 5626 5618 5614 5608 5602 5596 5591 5586 5581 5575 5570 5565 5560 5554 5549 5544 5539 5534 5528 5522 5516 5510 5503 5496 5489 5482 5474 5465 5456 5447 5439 5431 5423 5414 5407 5400 5395 5388 5383
5642 5634 5629 5621 5616 5610 5606 5600 5594 5587 5582 5577 5571 5566 5560 5554 5549 5544 5539 5533 5528 5523 5518 5512 5505 5498 5490 5482 5473 5466 5459 5450 5441 5431 5422 5413 5404 5396 5389 5381 5375 5371 5366 5363
5628 5622 5613 5607 5603 5595 5591 5585 5579 5573 5568 5562 5557 5551 5545 5540 5534 5528 5524 5519 5513 5507 5500 5493 5486 5478 5469 5460 5451 5442 5433 5424 5414 5406 5397 5388 5381 5375 5369 5365 5361 5353 5350 5348
Wind_Speed
21 22 23 23 23 22 24 23 21 21 22 19 24 29 30 29 33 18 20 25 24 23 26 22 23 22 18 17 19 21 27 30 32 33 45 56 60 59 50 42 48 49 51 52
25 23 24 25 25 26 25 25 26 23 22 23 24 25 23 23 19 16 19 24 26 20 24 22 16 14 12 17 20 20 24 31 34 35 40 56 56 57 52 49 52 52 45 52
26 26 24 25 26 27 27 26 27 29 27 25 24 23 23 21 18 18 18 20 24 23 22 14 18 16 11 12 12 12 15 15 26 35 40 53 53 51 51 58 39 45 52 47
28 28 28 28 28 29 30 31 30 30 30 31 26 23 25 23 21 21 18 19 23 28 25 18 14 18 10 9 9 11 11 15 11 24 34 50 50 50 50 44 51 64 51 44
28 30 30 30 30 29 29 30 31 31 30 31 31 28 22 23 21 19 19 17 19 23 26 19 18 20 15 11 11 2 10 5 11 20 32 47 52 56 49 43 43 41 58 61
30 30 31 32 30 29 28 29 30 30 32 30 33 32 23 24 22 19 19 17 17 21 21 20 18 13 18 12 3 10 10 2 5 15 18 41 45 40 57 54 47 43 55 61
31 29 31 31 32 32 31 31 33 34 35 33 33 37 30 25 24 21 19 17 16 17 19 19 12 12 14 4 2 3 6 8 13 17 27 21 29 38 35 37 40 42 45 52
32 33 33 34 35 34 31 31 32 34 35 34 33 37 34 29 22 21 21 20 19 18 17 18 16 12 13 9 3 6 6 13 17 25 13 21 19 33 29 23 33 31 34 29
36 35 34 35 36 35 33 33 34 35 35 35 33 33 34 29 27 23 24 23 21 19 20 18 18 15 11 10 8 3 10 18 12 16 9 13 27 28 32 34 35 31 28 27
35 33 36 36 38 34 33 34 35 35 36 38 36 32 33 29 29 30 27 26 25 23 20 21 19 18 15 11 10 8 7 8 7 8 10 13 17 24 26 26 26 29 31 32
36 35 35 35 38 34 32 33 35 37 37 38 37 35 32 28 27 29 32 30 28 27 27 23 22 22 21 19 16 13 14 12 13 13 15 18 20 23 22 24 27 27 31 33
35 36 37 35 37 34 29 32 35 37 37 35 39 32 32 28 28 29 33 36 35 33 32 30 27 25 24 24 23 21 21 20 20 21 22 23 25 26 28 31 33 34 37 35
37 37 40 37 40 40 31 31 36 37 37 34 36 31 29 31 29 32 34 33 35 37 35 34 34 33 32 29 27 27 27 27 27 28 29 29 29 30 32 35 36 39 41 41
37 36 37 36 37 39 29 31 37 37 36 39 27 31 32 31 30 29 29 33 32 34 36 34 34 35 35 33 31 31 31 31 32 33 34 35 36 38 40 42 43 45 47 48
37 35 38 34 36 38 31 33 37 39 35 39 33 35 35 33 34 31 29 27 28 30 32 33 33 33 30 30 32 33 34 35 37 38 39 41 42 44 46 49 51 51 51 52
38 37 39 35 37 39 33 32 36 38 39 40 41 38 38 34 33 34 31 29 26 26 27 29 29 29 31 32 35 37 41 43 44 46 48 49 50 51 53 55 57 58 58 59
41 40 40 41 40 41 38 35 39 40 42 43 44 43 40 38 35 35 35 35 33 33 33 34 35 36 38 40 41 43 46 47 50 52 53 55 57 59 60 61 61 62 63 65
42 40 42 44 42 43 41 41 36 38 44 46 47 45 41 43 40 34 34 35 36 36 37 39 40 42 43 44 46 48 49 51 53 55 57 59 62 63 65 66 68 70 72 73
42 40 42 45 46 47 44 38 42 48 46 45 46 43 44 42 42 40 38 37 38 39 39 40 42 44 46 48 49 50 52 54 56 58 61 63 65 68 70 72 73 75 76 78
45 47 47 46 50 52 44 42 48 50 44 46 45 42 44 46 46 47 46 45 44 43 44 45 45 47 48 50 52 54 56 59 62 64 66 69 71 73 76 78 80 82 84 86
49 51 49 50 52 53 50 50 51 48 46 44 43 43 45 49 49 50 51 50 49 49 49 50 51 52 53 54 56 59 62 65 69 71 73 75 77 79 81 83 85 87 89 91
52 54 51 52 57 57 54 54 49 44 42 44 46 48 49 51 49 52 53 53 51 52 53 53 54 56 58 60 62 65 69 72 75 77 79 80 82 85 87 90 92 93 95 96
55 55 53 53 57 52 51 50 47 45 45 45 49 54 55 55 54 54 55 55 55 55 55 55 57 60 62 64 68 72 75 77 80 82 84 86 88 91 93 94 95 95 95 95
55 55 56 57 56 58 59 55 54 54 54 57 56 55 54 56 57 58 57 56 56 57 58 59 62 64 68 71 75 77 79 81 83 86 89 91 92 93 93 91 90 86 81 75
57 57 56 56 55 51 52 51 53 54 56 57 54 54 55 56 56 58 57 58 57 58 60 62 66 70 74 77 79 81 83 85 87 89 90 90 88 84 79 72 66 61 56 53
59 60 65 65 62 57 54 53 55 55 54 55 56 59 59 59 57 56 57 58 60 60 63 67 72 75 77 79 82 85 87 88 88 86 82 76 68 60 54 50 46 48 47 44
Wind_Direction
339 333 327 325 322 325 325 324 325 321 320 323 314 289 290 296 306 315 336 331 328 328 326 330 325 308 307 287 264 245 237 239 239 237 228 221 221 222 221 226 231 234 235 237
345 340 334 325 317 316 318 324 323 320 316 317 322 324 330 311 310 312 330 334 333 330 342 330 322 311 304 281 271 270 260 250 247 232 230 217 219 217 221 228 231 235 238 236
347 345 342 334 323 315 309 313 317 321 319 317 315 317 323 320 324 335 334 336 340 341 332 332 345 328 315 290 299 268 271 258 241 225 219 210 212 212 218 222 211 228 234 238
346 343 343 342 336 330 319 315 312 312 315 317 316 312 318 322 322 327 329 341 346 345 345 329 351 341 341 315 305 318 295 245 217 229 223 206 203 199 211 213 223 226 228 233
346 344 343 340 341 339 331 323 313 309 305 312 313 312 312 318 317 317 320 329 336 340 350 337 334 344 319 302 266 192 291 210 240 238 215 209 202 201 210 226 231 242 231 240
343 344 343 341 343 339 337 333 326 319 310 310 306 302 309 311 311 305 310 316 325 331 338 351 319 329 340 308 135 12 197 78 135 185 204 210 212 209 217 225 237 259 243 248
342 343 342 343 344 344 342 341 335 330 326 320 311 304 295 300 303 300 301 305 315 323 329 339 346 336 347 308 282 224 197 154 182 208 195 199 212 219 212 221 246 248 243 245
342 339 343 344 342 344 345 343 336 332 330 325 319 317 315 295 288 293 300 302 303 311 319 324 333 344 354 12 103 201 203 183 186 204 197 186 188 211 225 246 244 247 248 248
340 340 340 341 341 342 345 340 335 336 335 333 331 323 323 308 280 280 286 295 299 300 309 312 317 327 334 334 354 355 230 226 198 242 220 201 194 213 220 222 247 245 247 242
338 341 339 339 338 338 342 336 335 338 337 336 334 331 329 322 295 276 278 280 288 291 296 298 298 306 313 313 310 311 309 313 297 281 279 244 249 239 248 254 252 249 245 246
336 339 338 334 335 335 342 334 330 333 336 337 331 340 332 331 319 295 282 276 274 278 281 288 290 292 297 298 296 286 286 281 270 268 267 267 262 268 270 266 265 266 264 263
336 335 333 333 331 333 341 332 328 328 334 336 327 341 323 322 314 303 294 290 280 276 275 275 274 282 285 288 287 285 281 277 273 272 267 264 263 264 267 269 271 270 271 271
330 333 331 327 328 329 335 329 324 323 333 333 330 331 327 322 319 313 304 293 285 282 282 283 281 277 273 274 275 277 282 283 282 281 280 278 274 272 273 274 275 275 275 274
327 330 326 325 325 321 331 329 322 319 326 325 328 332 318 326 322 317 312 301 291 287 285 284 284 285 282 277 277 275 277 275 275 277 277 278 280 281 281 280 279 278 277 277
323 322 326 323 323 318 324 324 322 317 317 320 321 322 317 318 319 318 316 310 301 291 290 289 287 285 283 278 276 277 279 281 282 282 282 282 282 282 282 284 284 282 280 278
320 318 319 324 318 317 318 318 320 320 320 320 318 318 312 312 311 309 308 307 306 301 291 287 286 285 284 284 283 283 285 287 287 288 289 289 289 289 288 287 286 285 284 283
318 315 313 319 315 313 316 317 313 313 316 315 315 313 312 308 307 302 301 302 304 300 294 291 290 288 286 286 286 286 286 287 287 287 287 286 286 285 284 284 284 284 283 283
315 309 308 311 311 308 317 313 308 308 312 310 310 308 307 311 309 304 298 300 298 295 294 293 292 291 290 290 289 288 288 288 288 288 287 287 286 285 284 284 284 284 284 284
311 306 306 308 310 309 310 312 307 308 308 304 302 304 301 303 304 302 301 298 296 296 294 292 291 291 290 289 288 288 288 288 288 288 288 287 287 287 287 287 287 287 286 286
310 307 304 303 303 307 314 311 307 307 306 302 300 301 303 305 307 305 302 300 299 299 298 295 294 293 292 292 293 293 294 294 294 294 292 290 289 289 289 289 289 288 287 287
307 304 302 305 304 306 310 309 311 307 304 303 304 302 302 300 300 303 303 300 299 298 297 297 296 294 294 293 293 293 295 296 296 295 294 293 292 291 290 290 289 288 287 287
307 302 301 302 303 307 308 307 302 302 303 306 306 304 301 300 295 296 299 298 296 297 298 297 297 296 296 296 296 296 296 295 295 294 293 292 292 291 290 290 290 289 289 289
301 298 295 300 302 302 304 303 302 305 305 305 302 302 303 300 299 298 300 298 297 297 298 298 297 297 296 295 295 295 295 296 295 294 294 293 293 292 291 291 291 291 290 290
295 298 299 299 299 301 300 299 298 300 301 302 302 301 301 300 298 298 297 296 295 295 296 298 299 298 297 296 296 296 296 295 295 295 294 294 295 295 294 293 292 291 290 289
295 297 298 300 305 299 298 298 296 295 297 301 300 299 298 296 296 297 295 293 293 295 296 297 297 297 297 297 297 296 296 296 296 296 296 296 295 294 293 293 292 290 288 288
294 294 297 296 296 296 296 295 293 295 298 300 301 300 297 296 296 296 295 295 295 296 297 298 298 298 298 298 298 297 298 297 297 297 296 295 295 294 293 292 292 292 291 289